User: anonymous
Location: Oshawa
(43.9000°N, 78.8670°W)
Time: 03:19:17
(UTC-04:00)
Language:

Cosmos 1408 Rocket - Orbit

View from above orbital plane
View from above orbital plane
View from above satellite
View from above satellite

Ground track
Ground track

The orbit data is extracted from the following two-line orbital elements,

1 13553U 82092B   14201.99706094  .00000110  00000-0  10425-4 0  9572
2 13553 082.5711 143.4117 0020277 316.3220 097.4799 14.83554775719516
Epoch (UTC): 20 July 2014 23:55:46
Eccentricity: 0.0020277
inclination: 82.5711°
perigee height: 604 km
apogee height: 632 km
right ascension of ascending node: 143.4117°
argument of perigee: 316.3220°
revolutions per day: 14.83554775
mean anomaly at epoch: 97.4799°
orbit number at epoch: 71951

The dashed part of the orbit path shows where the satellite is in the earth's shadow,  

DLR